Content
SEND FEEDBACK

Daily
Averages
Monthly
Summary
United States of America

PLACERVILLE, CALIFORNIA


Home > North America > United States > California
Elevation: 2590 feet     Latitude: 38 43N     Longitude: 120 45W

WEATHER
 
SELECT A DAY
Number of Records: 95,536;   Date Range: 7/10/09 - 9/17/14
 
SHARE

PRINT THIS DATA

[ ← Previous Day ]
WEATHER ALMANAC - JANUARY 21, 2013
[ Next Day → ]
[ °C ]   °F
Weather ElementAverageHighLow
Temperature55.5 °F62.6 °F (2:35 pm)46.4 °F (12:35 am)
Dewpoint20.2 °F30.2 °F (1:55 pm)6.8 °F (6:15 am)
Humidity25.7 %40 % (12:35 am)16 % (9:55 pm)
Barometer30.17 in30.21 in (10:15 am)30.14 in (7:55 am)
Wind Speed4 mph11.5 mph (7:35 pm)
Weather ElementAverage
Visibility10 mi
Wind DirectionENE (80.4 °)

Weather ElementTotal
Precipitation---
Heating Degree Days10.5 (Base 65)
Growing Degree Days4.5 (Base 50)
Averaged from 69 records on January 21, 2013
WEATHER CONDITIONS BREAKOUT
WIND DIRECTION BREAKOUT
WEATHER BY HOUR - JANUARY 21, 2013
[ °C ]   °F
Local TimeTemperatureDewpointHumidityBarometerVisibilityWind DirectionWind SpeedGust SpeedPrecipitationEventsConditions
12:35 AM46.4 °F23.0 °F40 %30.19 in10.0 miEast (100°)6.9 mphClear
12:55 AM50.0 °F17.6 °F28 %30.19 in10.0 miESE (110°)6.9 mphClear
1:15 AM51.8 °F17.6 °F26 %30.20 in10.0 miSSE (150°)4.6 mphClear
1:35 AM50.0 °F19.4 °F30 %30.20 in10.0 miESE (120°)3.5 mphClear
1:55 AM53.6 °F17.6 °F24 %30.20 in10.0 miSE (130°)3.5 mphClear
2:15 AM53.6 °F17.6 °F24 %30.19 in10.0 miEast (90°)3.5 mphClear
2:35 AM50.0 °F19.4 °F30 %30.19 in10.0 miEast (90°)5.8 mphClear
2:55 AM53.6 °F17.6 °F24 %30.18 in10.0 miEast (100°)4.6 mphClear
3:15 AM53.6 °F17.6 °F24 %30.18 in10.0 miEast (80°)3.5 mphClear
3:35 AM51.8 °F19.4 °F28 %30.17 in10.0 miNNE (30°)3.5 mphClear
3:55 AM53.6 °F17.6 °F24 %30.17 in10.0 miCalmClear
4:15 AM51.8 °F10.4 °F19 %30.17 in10.0 miEast (80°)6.9 mphClear
4:55 AM53.6 °F10.4 °F18 %30.16 in10.0 miCalmClear
5:15 AM51.8 °F10.4 °F19 %30.17 in10.0 miESE (110°)3.5 mphClear
5:35 AM53.6 °F10.4 °F18 %30.16 in10.0 miCalmClear
5:55 AM51.8 °F10.4 °F19 %30.16 in10.0 miEast (90°)4.6 mphClear
6:15 AM50.0 °F6.8 °F17 %30.16 in10.0 miEast (100°)3.5 mphClear
6:35 AM51.8 °F8.6 °F18 %30.17 in10.0 miCalmClear
6:55 AM53.6 °F12.2 °F19 %30.17 in10.0 miCalmClear
7:15 AM51.8 °F15.8 °F24 %30.16 in10.0 miENE (60°)5.8 mphClear
7:35 AM51.8 °F14.0 °F22 %30.15 in10.0 miEast (90°)6.9 mphClear
7:55 AM51.8 °F14.0 °F22 %30.14 in10.0 miEast (90°)8.1 mphClear
8:15 AM55.4 °F10.4 °F17 %30.15 in10.0 miESE (120°)3.5 mphClear
8:35 AM57.2 °F14.0 °F18 %30.16 in10.0 miCalmClear
8:55 AM55.4 °F14.0 °F20 %30.17 in10.0 miCalmClear
9:15 AM55.4 °F19.4 °F25 %30.19 in10.0 miWest (260°)4.6 mphClear
9:55 AM53.6 °F23.0 °F30 %30.20 in10.0 miCalmClear
10:15 AM55.4 °F21.2 °F26 %30.21 in10.0 miCalmClear
10:35 AM57.2 °F19.4 °F23 %30.20 in10.0 miCalmClear
10:55 AM59.0 °F24.8 °F27 %30.20 in10.0 miCalmClear
11:15 AM59.0 °F24.8 °F27 %30.20 in10.0 miSouth (190°)3.5 mphClear
11:35 AM59.0 °F24.8 °F27 %30.19 in10.0 miSW (230°)3.5 mphClear
11:55 AM59.0 °F28.4 °F31 %30.19 in10.0 miWSW (240°)6.9 mphClear
12:15 PM60.8 °F26.6 °F27 %30.18 in10.0 miSW (220°)4.6 mphClear
12:35 PM59.0 °F26.6 °F29 %30.18 in10.0 miWNW (300°)3.5 mphClear
12:55 PM60.8 °F26.6 °F27 %30.17 in10.0 miSouth (190°)4.6 mphClear
1:15 PM60.8 °F26.6 °F27 %30.18 in10.0 miSW (220°)3.5 mphClear
1:35 PM60.8 °F28.4 °F29 %30.18 in10.0 miSW (230°)4.6 mphClear
1:55 PM60.8 °F30.2 °F31 %30.18 in10.0 miSSW (200°)4.6 mphClear
2:15 PM60.8 °F24.8 °F25 %30.18 in10.0 miCalmClear
2:35 PM62.6 °F26.6 °F26 %30.18 in10.0 miSouth (190°)3.5 mphClear
2:55 PM60.8 °F24.8 °F25 %30.18 in10.0 miCalmClear
3:15 PM62.6 °F26.6 °F26 %30.18 in10.0 miCalmClear
3:35 PM62.6 °F26.6 °F26 %30.17 in10.0 miCalmClear
3:55 PM62.6 °F28.4 °F27 %30.17 in10.0 miCalmClear
4:15 PM62.6 °F28.4 °F27 %30.17 in10.0 miCalmClear
4:35 PM59.0 °F26.6 °F29 %30.18 in10.0 miCalmClear
4:55 PM59.0 °F26.6 °F29 %30.17 in10.0 miNorth (10°)3.5 mphClear
5:15 PM57.2 °F26.6 °F31 %30.17 in10.0 miNorth (10°)3.5 mphClear
5:35 PM57.2 °F26.6 °F31 %30.17 in10.0 miNorth (10°)3.5 mphClear
5:55 PM57.2 °F28.4 °F33 %30.17 in10.0 miEast (80°)6.9 mphClear
6:15 PM55.4 °F28.4 °F36 %30.16 in10.0 miEast (80°)10.4 mphClear
6:35 PM55.4 °F28.4 °F36 %30.16 in10.0 miEast (90°)8.1 mphClear
6:55 PM55.4 °F26.6 °F33 %30.15 in10.0 miEast (80°)8.1 mphClear
7:15 PM53.6 °F28.4 °F38 %30.15 in10.0 miEast (90°)9.2 mphClear
7:35 PM55.4 °F24.8 °F31 %30.15 in10.0 miEast (80°)11.5 mphClear
7:55 PM55.4 °F21.2 °F26 %30.15 in10.0 miEast (80°)11.5 mphClear
8:15 PM55.4 °F19.4 °F25 %30.15 in10.0 miEast (80°)4.6 mphClear
8:35 PM55.4 °F17.6 °F23 %30.15 in10.0 miEast (80°)11.5 mphClear
8:55 PM55.4 °F17.6 °F23 %30.15 in10.0 miENE (60°)8.1 mphClear
9:15 PM55.4 °F15.8 °F21 %30.16 in10.0 miCalmClear
9:35 PM53.6 °F15.8 °F22 %30.17 in10.0 miEast (100°)5.8 mphClear
9:55 PM57.2 °F10.4 °F16 %30.17 in10.0 miENE (70°)3.5 mphClear
10:15 PM53.6 °F14.0 °F21 %30.17 in10.0 miCalmClear
10:35 PM51.8 °F15.8 °F24 %30.18 in10.0 miENE (70°)4.6 mphClear
10:55 PM53.6 °F15.8 °F22 %30.19 in10.0 miNNE (30°)4.6 mphClear
11:15 PM51.8 °F19.4 °F28 %30.19 in10.0 miNE (50°)3.5 mphClear
11:35 PM50.0 °F17.6 °F28 %30.19 in10.0 miEast (100°)5.8 mphClear
11:55 PM48.2 °F15.8 °F27 %30.18 in10.0 miEast (90°)9.2 mphClear
Hourly data recorded from KPVF, located miles away from Placerville, California







STORIES FROM OUR PARTNERS